Terug naar catalogus

DELTA 1 DEB

ActiefPO
NORAD 21354·DEBRIS·🇺🇸 United States

Gelanceerd Jun 12, 1975 vanaf Vandenberg Space Force Base

Loading…

Volgende Passages (komende 24 uur)

TLE

VersSource: Space-Track

Epoch: Sep 14, 2026, 04:48 UTC

1 21354U 75052BY  26257.20050300  .00000954  00000-0  18000-2 0  9995
2 21354  99.5048 158.3484 0225050 106.3370  45.1208 13.31629451700618

Volg DELTA 1 DEB in realtime met AllMySat

Download on the App Store